Location: Poigny-la-Forêt
(48.6876°N, 1.7701°E)
Time: 19:16:26
(UTC+02:00)

ISS - Pass Details

Date: 25 March 2019
Orbit: 408 x 410 km, 51.6° (Epoch: 20 April)

Event Time Altitude Azimuth Distance (km) Brightness Sun altitude
Rises 20:11:42 0° 240° (WSW) 2,331 0.8 -10.4°
Reaches altitude 10° 20:13:47 10° 238° (WSW) 1,472 -0.4 -10.7°
Maximum altitude 20:17:04 69° 154° (SSE) 442 -3.8 -11.3°
Enters shadow 20:19:41 15° 73° (ENE) 1,200 -1.9 -11.7°
